Weather History for KTDF - November, 2013

Change the Weather History Date:

Saturday, November 16, 2013

  Actual Average Record
Temperature  
Mean Temperature 52 °F -  
Max Temperature 59 °F 60 °F 82 °F (1993)
Min Temperature 46 °F 35 °F 8 °F (2000)
Degree Days  
Heating Degree Days 12    
Growing Degree Days 2 (Base 50)    
Moisture  
Dew Point 52 °F    
Average Humidity 98    
Maximum Humidity 100    
Minimum Humidity 88    
Precipitation  
Precipitation 0.03 in - - ()
Sea Level Pressure  
Sea Level Pressure 30.27 in    
Wind  
Wind Speed 1 mph (ENE)    
Max Wind Speed 6 mph    
Max Gust Speed -    
Visibility 6 miles    
Events Fog , Rain    
Averages and records for this station are not official NWS values.
T = Trace of Precipitation, MM = Missing Value Source: NWS Daily Summary

Daily Weather History Graph

Daily Weather History Graph

Search for Another Location

Airport or City:

Trip Planner

Search our weather history database for the weather conditions in past years. The results will help you decide how hot, cold, wet, or windy it might be!

Date:

Astronomy

Nov. 16, 2013 Rise Set
Actual Time 6:54 AM EST 5:06 PM EST
Civil Twilight 6:26 AM EST 5:34 PM EST
Nautical Twilight 5:55 AM EST 6:05 PM EST
Astronomical Twilight 5:25 AM EST 6:36 PM EST
Moon 4:39 PM EST (11/16) 5:50 AM EST (11/16)
Length of Visible Light 11h 07m
Length of Day
10h 12m
Waxing Gibbous, 99% of the Moon is Illuminated
Nov 16
Waxing Gibbous
Nov 17
Full
Nov 25
Last Quarter
Dec 2
New
Dec 9
First Quarter

Hourly Weather History & Observations

Time (EST) Temp. Windchill Dew Point Humidity Pressure Visibility Wind Dir Wind Speed Gust Speed Precip Events Conditions
12:15 AM 46.4 °F 45.2 °F 46.4 °F 100% 30.25 in 10.0 mi NNW 3.5 mph - N/A Rain Light Rain
12:35 AM 46.4 °F - 46.4 °F 100% 30.25 in 10.0 mi Calm Calm - N/A   Overcast
12:55 AM 48.2 °F - 48.2 °F 100% 30.25 in 10.0 mi Calm Calm - N/A   Overcast
1:15 AM 46.4 °F - 46.4 °F 100% 30.25 in 7.0 mi Calm Calm - N/A   Overcast
1:35 AM 46.4 °F - 46.4 °F 100% 30.25 in 10.0 mi Calm Calm - N/A   Overcast
1:55 AM 48.2 °F - 48.2 °F 100% 30.25 in 10.0 mi Calm Calm - N/A   Overcast
2:15 AM 48.2 °F - 48.2 °F 100% 30.25 in 10.0 mi Calm Calm - N/A   Light Drizzle
2:35 AM 50.0 °F - 48.2 °F 94% 30.25 in 10.0 mi Calm Calm - N/A   Light Drizzle
2:55 AM 48.2 °F - 48.2 °F 100% 30.25 in 7.0 mi Calm Calm - N/A   Overcast
3:15 AM 50.0 °F - 48.2 °F 94% 30.25 in 7.0 mi Calm Calm - 0.01 in Rain Light Rain
3:35 AM 48.2 °F - 48.2 °F 100% 30.25 in 10.0 mi Calm Calm - 0.01 in   Overcast
3:55 AM 48.2 °F - 48.2 °F 100% 30.26 in 5.0 mi Calm Calm - 0.02 in   Heavy Drizzle
4:15 AM 48.2 °F - 48.2 °F 100% 30.25 in 7.0 mi Calm Calm - N/A   Overcast
4:35 AM 48.2 °F - 48.2 °F 100% 30.25 in 7.0 mi Calm Calm - N/A   Overcast
4:55 AM 48.2 °F - 48.2 °F 100% 30.25 in 7.0 mi Calm Calm - N/A   Overcast
5:15 AM 48.2 °F - 48.2 °F 100% 30.26 in 7.0 mi Calm Calm - N/A Rain Light Rain
5:35 AM 48.2 °F - 48.2 °F 100% 30.26 in 5.0 mi Calm Calm - 0.01 in Rain Light Rain
5:55 AM 50.0 °F - 50.0 °F 100% 30.27 in 7.0 mi Calm Calm - 0.01 in   Overcast
6:15 AM 50.0 °F - 50.0 °F 100% 30.27 in 7.0 mi ENE 3.5 mph - N/A   Overcast
6:35 AM 50.0 °F - 50.0 °F 100% 30.27 in 7.0 mi Calm Calm - N/A   Overcast
6:55 AM 50.0 °F - 50.0 °F 100% 30.27 in 7.0 mi ENE 3.5 mph - N/A   Overcast
7:15 AM 50.0 °F - 50.0 °F 100% 30.27 in 4.0 mi ENE 3.5 mph - N/A   Overcast
7:35 AM 50.0 °F - 50.0 °F 100% 30.28 in 5.0 mi NE 3.5 mph - N/A   Overcast
7:55 AM 50.0 °F - 50.0 °F 100% 30.28 in 5.0 mi NE 3.5 mph - N/A   Overcast
8:15 AM 50.0 °F - 50.0 °F 100% 30.28 in 5.0 mi ENE 3.5 mph - N/A   Overcast
8:35 AM 50.0 °F - 50.0 °F 100% 30.28 in 3.0 mi ENE 3.5 mph - N/A   Overcast
8:55 AM 50.0 °F - 50.0 °F 100% 30.29 in 1.5 mi Calm Calm - N/A   Overcast
9:15 AM 51.8 °F - 51.8 °F 100% 30.30 in 0.5 mi Calm Calm - N/A Fog Fog
9:35 AM 51.8 °F - 51.8 °F 100% 30.30 in 0.5 mi ENE 3.5 mph - N/A Fog Fog
9:55 AM 51.8 °F - 51.8 °F 100% 30.30 in 0.5 mi Calm Calm - N/A Fog Fog
10:15 AM 53.6 °F - 53.6 °F 100% 30.30 in 0.5 mi Calm Calm - N/A Fog Fog
10:35 AM 53.6 °F - 53.6 °F 100% 30.30 in 0.8 mi Calm Calm - N/A   Overcast
10:55 AM 53.6 °F - 53.6 °F 100% 30.30 in 1.0 mi Calm Calm - N/A   Overcast
11:15 AM 53.6 °F - 53.6 °F 100% 30.30 in 3.0 mi Calm Calm - N/A   Overcast
11:35 AM 55.4 °F - 55.4 °F 100% 30.29 in 5.0 mi North - - N/A   Overcast
11:55 AM 55.4 °F - 55.4 °F 100% 30.29 in 7.0 mi Calm Calm - N/A   Overcast
12:15 PM 55.4 °F - 55.4 °F 100% 30.29 in 7.0 mi ENE 3.5 mph - N/A   Overcast
12:35 PM 55.4 °F - 55.4 °F 100% 30.28 in 5.0 mi Calm Calm - N/A   Overcast
12:55 PM 55.4 °F - 55.4 °F 100% 30.28 in 7.0 mi Calm Calm - N/A   Overcast
1:15 PM 57.2 °F - 55.4 °F 94% 30.27 in 10.0 mi Calm Calm - N/A   Overcast
1:35 PM 57.2 °F - 55.4 °F 94% 30.27 in 10.0 mi North 3.5 mph - N/A   Overcast
1:55 PM 57.2 °F - 55.4 °F 94% 30.26 in 10.0 mi Calm Calm - N/A   Overcast
2:15 PM 59.0 °F - 55.4 °F 88% 30.26 in 10.0 mi Calm Calm - N/A   Overcast
2:35 PM 59.0 °F - 55.4 °F 88% 30.25 in 10.0 mi Calm Calm - N/A   Overcast
2:55 PM 59.0 °F - 55.4 °F 88% 30.25 in 10.0 mi Calm Calm - N/A   Overcast
3:15 PM 59.0 °F - 55.4 °F 88% 30.25 in 10.0 mi Calm Calm - N/A   Overcast
3:35 PM 59.0 °F - 55.4 °F 88% 30.25 in 10.0 mi Calm Calm - N/A   Overcast
3:55 PM 59.0 °F - 55.4 °F 88% 30.25 in 10.0 mi SE 3.5 mph - N/A   Overcast
4:15 PM 59.0 °F - 55.4 °F 88% 30.25 in 10.0 mi Calm Calm - N/A   Overcast
4:35 PM 57.2 °F - 55.4 °F 94% 30.25 in 10.0 mi Calm Calm - N/A   Overcast
4:55 PM 57.2 °F - 55.4 °F 94% 30.26 in 7.0 mi Calm Calm - N/A   Overcast
5:15 PM 57.2 °F - 55.4 °F 94% 30.26 in 10.0 mi Calm Calm - N/A   Overcast
5:35 PM 57.2 °F - 55.4 °F 94% 30.26 in 10.0 mi Calm Calm - N/A   Overcast
5:55 PM 55.4 °F - 55.4 °F 100% 30.25 in 7.0 mi Calm Calm - N/A   Overcast
6:15 PM 55.4 °F - 55.4 °F 100% 30.26 in 7.0 mi Calm Calm - N/A   Overcast
6:35 PM 55.4 °F - 55.4 °F 100% 30.26 in 7.0 mi East 3.5 mph - N/A   Overcast
6:55 PM 55.4 °F - 55.4 °F 100% 30.26 in 7.0 mi East 4.6 mph - N/A   Overcast
7:15 PM 55.4 °F - 55.4 °F 100% 30.26 in 5.0 mi East 4.6 mph - N/A   Overcast
7:35 PM 53.6 °F - 53.6 °F 100% 30.26 in 2.5 mi East 5.8 mph - N/A   Overcast
7:55 PM 53.6 °F - 53.6 °F 100% 30.26 in 2.0 mi ESE 4.6 mph - N/A   Overcast
8:15 PM 53.6 °F - 53.6 °F 100% 30.27 in 1.5 mi Calm Calm - N/A   Overcast
8:35 PM 53.6 °F - 53.6 °F 100% 30.27 in 3.0 mi Calm Calm - N/A   Overcast
8:55 PM 53.6 °F - 53.6 °F 100% 30.28 in 3.0 mi NNW 4.6 mph - N/A   Overcast
9:15 PM 53.6 °F - 53.6 °F 100% 30.27 in 2.5 mi Calm Calm - N/A   Overcast
9:35 PM 53.6 °F - 53.6 °F 100% 30.27 in 4.0 mi Calm Calm - N/A   Overcast
9:55 PM 53.6 °F - 53.6 °F 100% 30.27 in 5.0 mi Calm Calm - N/A   Overcast
10:15 PM 53.6 °F - 53.6 °F 100% 30.26 in 5.0 mi Calm Calm - N/A   Overcast
10:35 PM 53.6 °F - 53.6 °F 100% 30.26 in 1.0 mi Calm Calm - N/A   Overcast
10:55 PM 53.6 °F - 53.6 °F 100% 30.25 in 1.2 mi Calm Calm - N/A   Overcast
11:15 PM 53.6 °F - 53.6 °F 100% 30.25 in 0.8 mi Calm Calm - N/A   Overcast
11:35 PM 53.6 °F - 53.6 °F 100% 30.25 in 0.5 mi East 5.8 mph - N/A Fog Fog
11:55 PM 53.6 °F - 53.6 °F 100% 30.25 in 0.5 mi East 4.6 mph - N/A Fog Fog